Location: Cahas Mountain Overlook
(37.0833°N, 80.1000°W)
Time: 10:17:26
(UTC-05:00)

S-56A Canister/Altair - Pass Details

Date: 03 December 2023
Orbit: 640 x 2488 km, 38.9° (Epoch: 25 February)

Event Time Altitude Azimuth Distance (km) Brightness Sun altitude
Rises 11:23:44 0° 225° (SW) 3,298 11.2 29.8°
Reaches altitude 10° 11:26:34 10° 216° (SW) 2,206 10.6 29.9°
Maximum altitude 11:30:55 33° 152° (SSE) 1,091 10.3 30.1°
Drops below altitude 10° 11:34:56 10° 87° (E) 2,024 9.9 30.2°
Sets 11:37:25 0° 78° (ENE) 2,982 10.5 30.3°
